sat.trackr.live / text

‹ back to catalog

ONEWEB-0118

NORAD 47264 · 2020-100G

PAYLOAD ACTIVE UNKNOWN

§ Identity

Operator
Country
UK
Launch date
2020-12-18
Launch site
VOSTO
Launch vehicle
Mass (kg)
RCS (m²)

Purposes: comms

External: N2YO · Heavens-Above · Gunter

§ Orbital elements

Epoch: 2026-09-20T04:06:33.958368Z

Period
109.72 min
Inclination
87.8983°
Eccentricity
0.0001838
Mean motion
13.12442925 rev/d
Perigee alt
1,212.3 km
Apogee alt
1,215.1 km
Semi-major
7,591.9 km
B*
6.8627e-4
RAAN
331.7990°
Arg perigee
109.2099°
Mean anomaly
250.9228°
Rev number
27,718

§ Raw data

ONEWEB-01181 47264U 20100G   26263.17122637  .00000260  00000+0  68627-3 0  99932 47264  87.8983 331.7990 0001838 109.2099 250.9228 13.12442925277186

JSON: /api/v1/satellites/47264 · /tle

For live sub-satellite position, see the globe view (requires WebGL).

§ Visibility from observer

Set your observer location to see the next 7 days of passes ≥ 10°. The values pass through the URL so the page stays shareable.

No JS? Fill the form by hand. The geolocation button needs JavaScript.